Regional Weather Roundup
Issued by NWS Newport/Morehead, NC

Current Version | Previous Version | Graphics & Text | Print | Product List | Glossary On
Versions: 1 2 3 4 5 6 7 8 9 10 11 12 13 14 15 16 17 18 19 20 21 22 23 24 25 26 27 28 29 30 31 32 33 34 35 36 37 38 39 40 41 42 43 44 45 46 47 48 49 50
000 ASUS42 KMHX 281025 RWRMHX WEATHER ROUNDUP FOR EASTERN NORTH CAROLINA NATIONAL WEATHER SERVICE NEWPORT/MOREHEAD CITY NC 600 AM EDT SAT MAY 28 2016 NOTE: "FAIR" INDICATES FEW OR NO CLOUDS BELOW 12,000 FEET WITH NO SIGNIFICANT WEATHER AND/OR OBSTRUCTIONS TO VISIBILITY NCZ015>017-031-032-045>047-102-103-281100- NORTH COAST CITY SKY/WX TMP DP RH WIND PRES REMARKS EDENTON CLEAR N/A N/A N/A CALM 30.17R ELIZABETH CITY CLEAR 62 61 96 CALM 30.17R KITTY HAWK SUNNY 63 62 94 E3 30.16R MANTEO NOT AVBL $$ NCZ045>047-081-094-103-104-281100- CENTRAL COAST CITY SKY/WX TMP DP RH WIND PRES REMARKS FRISCO CLEAR 70 67 90 E5 30.15R $$ NCZ095-097-098-100-101-281100- SOUTHERN COAST CITY SKY/WX TMP DP RH WIND PRES REMARKS BEAUFORT CLEAR 67 66 97 NE5 30.14R CEDAR ISLAND NOT AVBL JACKSONVILLE CLEAR 64 62 93 CALM 30.13R PINEY ISLAND MOSUNNY N/A N/A N/A E6 30.14R WILMINGTON PTCLDY 64 63 96 NE5 30.12R $$ NCZ011>013-027>030-043-044-078>080-089-090>093-098-281100- COASTAL PLAIN CITY SKY/WX TMP DP RH WIND PRES REMARKS AHOSKIE CLEAR 55 55 98 CALM 30.17R FOG CLINTON PTCLDY 60 60 99 CALM 30.15R ELIZABETHTOWN PTCLDY 61 61 100 CALM 30.14R FOG GOLDSBORO CLEAR 59 59 100 CALM 30.14R GREENVILLE PTCLDY 59 59 100 CALM 30.17R FOG HAVELOCK PTCLDY 65 63 93 CALM 30.15R KENANSVILLE PTCLDY 57 56 96 CALM 30.16R FOG KINSTON PTCLDY 58 57 97 CALM 30.16R NEW BERN FOG 62 61 96 CALM 30.15S VSB 1/4 RICHLANDS PTCLDY 62 61 96 N5 30.14S ROCKY MOUNT CLEAR 56 56 100 CALM 30.16R FOG WASHINGTON PTCLDY 59 57 96 CALM 30.16R WHITEVILLE CLEAR 64 62 96 CALM 30.13R FOG $$ AMZ130-135-150-152-154-156-158-170-250-252-270-ANZ085-086-088-633-658-670-281100- MARINE OBSERVATIONS STATION/POSITION TIME TEMP WIND PRES WAVE SWELL AIR SEA DIR/SP/G HT/PER HT/PER (UTC) (F) (DEG/KT/KT) (MB) (FT/S) (FT/S) CHESAPEAKE LIGHT 1000 67 200/ 7/ 7 1022.3 64 E VA BEACH 0950 65 62 70/ 4/ 6 1021.7 3/ 8 3/ 8 DUCK 1000 63 59 60/ 3/ 3 1020.9 2 E DUCK 0911 63 N/A 2/ 7 OREGON INLET 1000 67 73 50/ 4/ 5 1021.2 13E OREGON INLT 1000 70 N/A 3/ 8 3/ 8 HATTERAS CG 1000 74 74 110/ 5/ 7 1020.4 DIAMOND BUOY 0950 76 78 110/ 10/ 14 1020.6 4/ 9 3/ 9 CAPE LOOKOUT 1000 74 100/ 9/ 9 1020.1 BEAUFORT LAB 1000 69 73 30/ 4/ 5 1019.7 30 SE NEW RVR IN 0925 74 N/A 5/ 7 2/11 27 SE WRIGHTSVLE 1008 75 74 90/ 8/ 12 1019.3 5 SE WRIGHTSVLE 1008 74 74 70/ 8/ 12 1020.2 225 S CAPE HAT 0950 76 77 90/ 16/ 19 1017.7 5/ 8 3/ 8 41 SE CHARLESTON 0950 77 76 50/ 12/ 16 1016.9 5/ 8 3/ 8 $$

USA.gov is the U.S. government's official web portal to all federal, state and local government web resources and services.